| time (UTC) | temp F | wind direction | speed MPH | gust MPH | rain 1hr in | rain 24hr in | rain mn in | humidity % | barometer mb |
| 20260831233020 | 82 | 329 | 0.0 | 0.0 | 0.00 | 0.02 | 0.00 | 83 | 1018.3 |
| 20260831231518 | 82 | 329 | 0.0 | 1.0 | 0.00 | 0.02 | 0.00 | 82 | 1018.4 |
| 20260831230012 | 83 | 341 | 0.0 | 2.0 | 0.00 | 0.02 | 0.00 | 81 | 1018.5 |
| 20260831224509 | 83 | 329 | 0.0 | 3.0 | 0.00 | 0.02 | 0.00 | 81 | 1018.5 |
| 20260831223003 | 83 | 352 | 1.0 | 3.0 | 0.00 | 0.02 | 0.00 | 80 | 1018.6 |
| 20260831221504 | 83 | 333 | 1.0 | 3.0 | 0.00 | 0.02 | 0.00 | 80 | 1018.5 |
| 20260831220003 | 84 | 319 | 1.0 | 3.0 | 0.00 | 0.02 | 0.00 | 79 | 1018.7 |
| 20260831214503 | 85 | 342 | 1.0 | 3.0 | 0.00 | 0.02 | 0.00 | 77 | 1018.7 |
| 20260831213017 | 85 | 352 | 1.0 | 4.0 | 0.00 | 0.02 | 0.00 | 75 | 1018.5 |
| 20260831211504 | 85 | 337 | 1.0 | 3.0 | 0.00 | 0.02 | 0.00 | 74 | 1018.4 |
| 20260831210004 | 85 | 348 | 1.0 | 4.0 | 0.00 | 0.02 | 0.00 | 72 | 1018.5 |
| 20260831204508 | 87 | 318 | 3.0 | 5.0 | 0.00 | 0.02 | 0.00 | 69 | 1018.4 |
| 20260831203003 | 87 | 311 | 3.0 | 7.0 | 0.00 | 0.02 | 0.00 | 68 | 1018.4 |
| 20260831201503 | 88 | 296 | 1.0 | 5.0 | 0.00 | 0.02 | 0.00 | 66 | 1018.5 |
| 20260831200003 | 88 | 352 | 1.0 | 3.0 | 0.00 | 0.02 | 0.00 | 66 | 1018.5 |
| 20260831194505 | 87 | 322 | 0.0 | 6.0 | 0.00 | 0.02 | 0.00 | 69 | 1018.6 |
| 20260831193014 | 87 | 286 | 1.0 | 6.0 | 0.00 | 0.02 | 0.00 | 67 | 1018.7 |
| 20260831191514 | 87 | 325 | 0.0 | 3.0 | 0.00 | 0.02 | 0.00 | 69 | 1018.9 |
| 20260831190006 | 86 | 281 | 0.0 | 4.0 | 0.00 | 0.02 | 0.00 | 69 | 1019.1 |
| 20260831184504 | 86 | 315 | 2.0 | 6.0 | 0.00 | 0.02 | 0.00 | 70 | 1019.0 |
| 20260831183006 | 86 | 314 | 2.0 | 5.0 | 0.00 | 0.02 | 0.00 | 71 | 1019.0 |
| 20260831181514 | 86 | 331 | 0.0 | 2.0 | 0.00 | 0.02 | 0.00 | 71 | 1019.1 |
| 20260831180015 | 85 | 145 | 0.0 | 5.0 | 0.00 | 0.02 | 0.00 | 73 | 1019.3 |
| 20260831174511 | 85 | 304 | 2.0 | 5.0 | 0.00 | 0.02 | 0.00 | 73 | 1019.4 |
| 20260831173006 | 84 | 5 | 1.0 | 6.0 | 0.00 | 0.02 | 0.00 | 73 | 1019.5 |
| 20260831171512 | 84 | 303 | 2.0 | 4.0 | 0.00 | 0.02 | 0.00 | 73 | 1019.7 |
| 20260831170003 | 83 | 360 | 1.0 | 6.0 | 0.00 | 0.02 | 0.00 | 75 | 1019.8 |
| 20260831164536 | 83 | 10 | 2.0 | 8.0 | 0.00 | 0.02 | 0.00 | 75 | 1019.9 |
| 20260831163004 | 83 | 281 | 1.0 | 5.0 | 0.00 | 0.02 | 0.00 | 75 | 1020.0 |
| 20260831161508 | 82 | 325 | 3.0 | 7.0 | 0.00 | 0.02 | 0.00 | 75 | 1020.0 |
| 20260831160015 | 81 | 316 | 2.0 | 7.0 | 0.00 | 0.02 | 0.00 | 77 | 1020.0 |
| 20260831154520 | 81 | 61 | 0.0 | 6.0 | 0.00 | 0.02 | 0.00 | 79 | 1019.9 |
| 20260831153010 | 80 | 35 | 2.0 | 9.0 | 0.00 | 0.02 | 0.00 | 80 | 1019.9 |
| 20260831151505 | 80 | 316 | 1.0 | 10.0 | 0.00 | 0.02 | 0.00 | 80 | 1019.9 |
| 20260831150012 | 80 | 286 | 2.0 | 9.0 | 0.00 | 0.02 | 0.00 | 81 | 1020.0 |
| 20260831144518 | 79 | 46 | 0.0 | 6.0 | 0.00 | 0.02 | 0.00 | 81 | 1020.0 |
| 20260831143021 | 79 | 342 | 2.0 | 5.0 | 0.00 | 0.02 | 0.00 | 83 | 1019.9 |
| 20260831141514 | 78 | 32 | 2.0 | 8.0 | 0.00 | 0.02 | 0.00 | 82 | 1019.8 |
| 20260831140013 | 78 | 344 | 2.0 | 6.0 | 0.00 | 0.02 | 0.00 | 84 | 1019.7 |
| 20260831134502 | 77 | 340 | 3.0 | 10.0 | 0.00 | 0.02 | 0.00 | 84 | 1019.8 |
| 20260831133008 | 76 | 314 | 1.0 | 6.0 | 0.00 | 0.02 | 0.00 | 89 | 1019.9 |
| 20260831131504 | 75 | 352 | 3.0 | 6.0 | 0.00 | 0.02 | 0.00 | 90 | 1019.9 |
| 20260831130003 | 74 | 321 | 2.0 | 6.0 | 0.00 | 0.02 | 0.00 | 92 | 1020.0 |
| 20260831124514 | 73 | 343 | 1.0 | 5.0 | 0.00 | 0.02 | 0.00 | 93 | 1020.0 |
| 20260831123001 | 72 | 342 | 2.0 | 6.0 | 0.00 | 0.02 | 0.00 | 95 | 1020.0 |
| 20260831121503 | 72 | 348 | 0.0 | 3.0 | 0.00 | 0.02 | 0.00 | 95 | 1019.9 |
| 20260831120009 | 72 | 30 | 2.0 | 7.0 | 0.00 | 0.02 | 0.00 | 95 | 1019.9 |
| 20260831114504 | 72 | 352 | 0.0 | 4.0 | 0.00 | 0.02 | 0.00 | 96 | 1019.8 |
| 20260831113005 | 71 | 352 | 1.0 | 3.0 | 0.00 | 0.02 | 0.00 | 96 | 1019.6 |
| 20260831111501 | 70 | 85 | 0.0 | 0.0 | 0.00 | 0.02 | 0.00 | 96 | 1019.4 |
| 20260831110004 | 70 | 351 | 0.0 | 0.0 | 0.00 | 0.02 | 0.00 | 95 | 1019.3 |
| 20260831104512 | 70 | 338 | 0.0 | 0.0 | 0.00 | 0.02 | 0.00 | 96 | 1018.9 |
| 20260831103007 | 71 | 338 | 0.0 | 0.0 | 0.00 | 0.02 | 0.00 | 96 | 1018.7 |
| 20260831101505 | 71 | 5 | 0.0 | 0.0 | 0.00 | 0.02 | 0.00 | 96 | 1018.6 |
| 20260831100005 | 71 | 5 | 0.0 | 0.0 | 0.00 | 0.02 | 0.00 | 96 | 1018.6 |
| 20260831094501 | 71 | 126 | 0.0 | 0.0 | 0.00 | 0.02 | 0.00 | 95 | 1018.6 |
| 20260831093012 | 71 | 160 | 0.0 | 0.0 | 0.00 | 0.02 | 0.00 | 96 | 1018.7 |
| 20260831091523 | 70 | 352 | 0.0 | 0.0 | 0.00 | 0.02 | 0.00 | 95 | 1018.5 |
| 20260831090018 | 71 | 17 | 0.0 | 0.0 | 0.00 | 0.02 | 0.00 | 95 | 1018.5 |
| 20260831084509 | 71 | 17 | 0.0 | 0.0 | 0.00 | 0.02 | 0.00 | 95 | 1018.5 |
| 20260831083005 | 71 | 17 | 0.0 | 0.0 | 0.00 | 0.02 | 0.00 | 95 | 1018.5 |
| 20260831081505 | 71 | 17 | 0.0 | 0.0 | 0.00 | 0.02 | 0.00 | 94 | 1018.5 |
| 20260831080025 | 71 | 17 | 0.0 | 0.0 | 0.00 | 0.02 | 0.00 | 95 | 1018.4 |
| 20260831074535 | 72 | 143 | 0.0 | 0.0 | 0.00 | 0.02 | 0.00 | 94 | 1018.5 |
| 20260831073008 | 72 | 212 | 0.0 | 0.0 | 0.00 | 0.02 | 0.00 | 95 | 1018.4 |
| 20260831071525 | 72 | 212 | 0.0 | 0.0 | 0.00 | 0.02 | 0.00 | 95 | 1018.4 |
| 20260831070024 | 72 | 212 | 0.0 | 0.0 | 0.00 | 0.02 | 0.00 | 95 | 1018.3 |
| 20260831064508 | 72 | 265 | 0.0 | 0.0 | 0.00 | 0.02 | 0.00 | 94 | 1018.4 |
| 20260831063027 | 72 | 265 | 0.0 | 0.0 | 0.00 | 0.02 | 0.00 | 94 | 1018.4 |
| 20260831061510 | 72 | 265 | 0.0 | 0.0 | 0.00 | 0.02 | 0.00 | 94 | 1018.6 |
| 20260831060015 | 73 | 265 | 0.0 | 0.0 | 0.00 | 0.02 | 0.00 | 93 | 1018.7 |
| 20260831054522 | 73 | 265 | 0.0 | 0.0 | 0.00 | 0.02 | 0.00 | 92 | 1018.8 |
| 20260831053015 | 73 | 265 | 0.0 | 0.0 | 0.00 | 0.02 | 0.00 | 93 | 1018.8 |
| 20260831051513 | 73 | 147 | 0.0 | 0.0 | 0.00 | 0.02 | 0.00 | 92 | 1018.9 |
| 20260831050015 | 73 | 147 | 0.0 | 0.0 | 0.00 | 0.02 | 0.00 | 92 | 1019.1 |
| 20260831044523 | 73 | 148 | 0.0 | 1.0 | 0.00 | 0.02 | 0.00 | 93 | 1019.0 |
| 20260831043028 | 73 | 147 | 0.0 | 2.0 | 0.00 | 0.02 | 0.00 | 93 | 1019.1 |
| 20260831041522 | 73 | 113 | 0.0 | 2.0 | 0.00 | 0.02 | 0.00 | 94 | 1019.3 |
| 20260831040023 | 73 | 346 | 0.0 | 0.0 | 0.00 | 0.02 | 0.00 | 95 | 1019.4 |
| 20260831034513 | 73 | 346 | 0.0 | 0.0 | 0.00 | 0.02 | 0.02 | 94 | 1019.5 |
| 20260831033028 | 73 | 346 | 0.0 | 1.0 | 0.02 | 0.02 | 0.02 | 94 | 1019.7 |
| 20260831031531 | 73 | 346 | 1.0 | 2.0 | 0.02 | 0.02 | 0.02 | 94 | 1019.7 |
| 20260831030035 | 74 | 346 | 0.0 | 2.0 | 0.02 | 0.02 | 0.02 | 92 | 1019.9 |
| 20260831024533 | 74 | 5 | 0.0 | 3.0 | 0.02 | 0.02 | 0.02 | 91 | 1019.9 |
| 20260831023021 | 74 | 273 | 0.0 | 0.0 | 0.00 | 0.00 | 0.00 | 90 | 1019.9 |
| 20260831021523 | 75 | 273 | 0.0 | 1.0 | 0.00 | 0.00 | 0.00 | 88 | 1020.0 |
| 20260831020050 | 75 | 161 | 0.0 | 6.0 | 0.00 | 0.00 | 0.00 | 89 | 1020.2 |
| 20260831014538 | 74 | 170 | 2.0 | 11.0 | 0.00 | 0.00 | 0.00 | 91 | 1020.1 |
| 20260831013018 | 74 | 96 | 0.0 | 1.0 | 0.00 | 0.00 | 0.00 | 92 | 1020.1 |
| 20260831011502 | 74 | 20 | 0.0 | 2.0 | 0.00 | 0.00 | 0.00 | 92 | 1019.8 |
| 20260831010011 | 74 | 20 | 0.0 | 1.0 | 0.00 | 0.00 | 0.00 | 91 | 1019.6 |
| 20260831004504 | 74 | 20 | 0.0 | 2.0 | 0.00 | 0.00 | 0.00 | 92 | 1019.5 |
| 20260831003003 | 74 | 20 | 0.0 | 1.0 | 0.00 | 0.00 | 0.00 | 90 | 1019.3 |
| 20260831001503 | 74 | 20 | 0.0 | 1.0 | 0.00 | 0.00 | 0.00 | 90 | 1019.2 |
| 20260831000003 | 75 | 20 | 0.0 | 2.0 | 0.00 | 0.00 | 0.00 | 90 | 1019.1 |
| 20260830234516 | 75 | 20 | 0.0 | 0.0 | 0.00 | 0.00 | 0.00 | 88 | 1019.1 |